NapervilleWeather.com

Find the Weather for any City, State  
or Zipcode, or Country:

Naperville, IL Weather
Local Radar

Local Radar

Graphs, Details
Graphs and Gauges
Detailed Weather
Detailed Reports
Ajax Version (old)
Davis Summary
Davis Current Weather Graphs
Davis 24 Hour Weather History
Cumulus

CW7164 Data

Weather Underground
www.awekas.at
Automatic Weather Map System
Latest Naperville, Illinois, weather
Weather For You
Maps
Temperature
Heat Index
Windchill
Humidity
Radar
Dew Point
Wind
Visibility
Visible Satellite
Satellite
Fronts
Snow Depth
Jet Stream
Flight Rules
Forecast Maps
Temperature Forecast
Maximum Temperature Forecast
Minimum Temperature Forecast
Dewpoint Forecast
Prevalent Weather
12Hr Probability of Precip.
Sky Cover
Health Maps
UV Forecast
Air Quality
Peak Air Quality Index
Weather Station
Davis Instruments Vantage Pro2
Current Conditions [Select Refresh to Update]

Updated: 9:21pm on 12/9/16

(location)
Currently:
18.8°F

Clear
Overcast

High: 24.7 °F< 
(5:23am
Low: 17.3 °F 
(3:11pm)
Wind: W 0 mph
Calm
Gust: 0 mph
Today's High Wind: 12 mph (7:08am)
Humidity: 0%
Pressure: 30.58 in  (Steady
Pressure Rate: -0.002 in/hr
Dew Point: 0.0°F
Wind Chill: 18.8 °F
Heat Index (feels like): 16.6 °F
Comfort Level: Uncomfortably Cold
Temperature Rate:  0.06°F/hr
 
5 Day Forecast
 
Sat Sun Mon Tue Wed
Clear Clear Clear Clear Clear
Snow Snow Snow Snow Snow
26 32 29 24 16
24 23 13 5 -5

Records and Normals
 
Temperature Forecast Normal Record
High 26 0 0
(0)
Low 24 0 0
(0)
 
 
Weather Advisories
No Warnings
Full Advisory Text...
Weather Map

Web Cam

Almanac
 
Sunrise:  
7:08am
Moonrise: 
1:39pm

Moon Phase:
80%

Sunset: 
4:21pm
Moonset:  
1:37am
 Star Chart...
Rainfall Totals
Hourly Rain 0.00 in
Daily Rain: 0.00 in
Monthly Rain: 0.21 in
Yearly Rain: 34.13 in
Normal Rain, month to date: 0.00 in
Normal Rain, year to date: 0.00 in
Local Weather Exchange Network
Station ID City 
(Click for Map Location)
Neighborhood 
(Click for History)
Last Update (Date & Time) Temperature
 ()
Dew
Point ()
Humidity 
(%)
Wind 
(mph)
from the Wind Gust 
(mph) 
Pressure(in) Hourly
Rain(in)
KILNAPER15 Naperville Indian Hill Near Jefferson JHS 12/10 02:34:55 19.2 15.0 82 2 West 4 30.55 0.00
KILNAPER25 Naperville brushhill-w 12/10 02:32:57 20.2 15.0 80 1 SW 3 30.55 0.00
KILNAPER24 Naperville Brush Hill 12/10 02:20:11 19.7 15.0 82 3 WNW 5 30.51 0.00
KILNAPER65 Naperville South Sleight Street 12/10 02:25:17 22.3 15.0 74 0 North 0 30.51 0.00
KILNAPER69 Naperville East Highlands 12/10 02:35:01 20.5 8.0 59 0 South 2 30.51 0.00
KILNAPER7 Naperville NapervilleWeather.com Near Ogden and Naper Blvd 12/10 01:56:50 18.9 0.0 0 0 West 2 30.58 0.00
KILNAPER19 Naperville Brookdale Lakes 12/10 02:35:00 19.1 14.0 82 0 NNW 1 30.57 0.00
KILWARRE2 Warrenville Warrenville Neighborhood Weather 12/10 02:31:38 19.3 15.0 84 0 West 0 30.53 0.00
KILLISLE15 Lisle Highview Drive 12/10 02:26:22 19.6 13.0 74 0 North 0 30.52 0.00
KILNAPER84 Naperville E. Highlands 12/10 02:27:34 19.5 12.0 72 0 West 0 30.51 0.00
KILNAPER74 Naperville Ambleside Circle 12/10 02:30:54 19.8 15.0 83 0 North 0 30.42 0.00
KILNAPER23 Naperville Naper Blvd at BNSF RR 12/10 02:34:42 18.2 14.0 83 0 West 4 30.58 0.00
KILNAPER60 Naperville Longwood 12/10 02:34:59 19.6 15.0 82 5 WSW 5 30.49 0.00
KILNAPER30 Naperville Cypress Drive 12/10 02:30:38 21.7 14.0 73 0 North 0 30.53 0.00
KILLISLE10 Lisle Maple Avenue 12/10 02:32:00 20.7 14.0 76 0 North 0 30.59 0.00
KILLISLE9 Lisle Park Meadow Drive 12/10 02:30:37 21.6 14.0 72 0 North 0 30.53 0.00
KILNAPER9 Naperville 75th St. / Modaff Area 12/10 02:34:58 19.7 15.0 82 0 West 0 30.55 0.00
KILWARRE12 Warrenhurst Warrenville 12/10 02:32:09 19.6 14.0 80 0 North 0 30.50 0.00
KILWARRE6 Warrenville Summer Lakes 12/10 02:24:31 18.2 14.0 85 1 West 3 30.56 0.00
KILWHEAT15 Wheaton Schubert Court 12/10 02:25:55 18.9 13.0 78 0 North 0 30.51 0.00
KILNAPER67 Naperville Split Oak Road 12/10 02:33:26 20.1 16.0 85 1 West 2 30.55 0.00
KILAUROR65 Aurora Thatchers Grove 12/10 02:35:00 20.1 13.0 74 0 North 0 30.51 0.00
KILAUROR41 Aurora Hamman Way 12/10 02:34:34 19.6 16.0 87 0 North 0 30.53 0.00
KILAUROR27 Aurora Stonehaven 12/10 02:34:55 19.0 14.0 83 3 West 0 30.52 0.00
KILNAPER77 Naperville Duke Ct - K9POL 12/10 02:34:02 18.7 14.0 81 3 West 0 30.52 0.00
KDPA Chicago DuPage Official Station 12/10 01:52:00 18.0 11.0 74 8 West --- 30.54 ---
KLOT Romeoville Official Station 12/10 02:15:00 20.0 16.0 87 5 WNW --- 30.52 ---
KARR Aurora Official Station 12/10 01:52:00 20.0 14.0 78 7 West --- 30.56 ---
KJOT Joliet Official Station 12/10 02:15:00 22.0 16.0 78 0 North --- 30.53 ---
Full Advisory Text
No Warnings

Ambient Weather and Weather Underground
 Never base important decisions on this or any weather information obtained from the Internet
Updated Automatically by Ambient Weather's Virtual Weather Station  V14.01